| time (UTC) | temp C | wind direction | speed KPH | gust KPH | rain 1hr cm | rain 24hr cm | rain mn cm | humidity % | barometer mb |
| 20260502224542 | 17 | 46 | 3.2 | 17.7 | 0.00 | 0.00 | 0.00 | 89 | 1016.1 |
| 20260502223039 | 17 | 30 | 6.4 | 20.9 | 0.00 | 0.00 | 0.00 | 89 | 1016.3 |
| 20260502221542 | 17 | 111 | 8.0 | 20.9 | 0.00 | 0.00 | 0.00 | 89 | 1016.1 |
| 20260502220052 | 17 | 78 | 4.8 | 16.1 | 0.00 | 0.00 | 0.00 | 89 | 1016.4 |
| 20260502214536 | 17 | 59 | 6.4 | 16.1 | 0.00 | 0.00 | 0.00 | 89 | 1016.2 |
| 20260502213043 | 17 | 51 | 3.2 | 9.7 | 0.00 | 0.00 | 0.00 | 90 | 1016.8 |
| 20260502211544 | 17 | 54 | 4.8 | 14.5 | 0.00 | 0.00 | 0.00 | 91 | 1016.7 |
| 20260502210041 | 17 | 44 | 3.2 | 11.3 | 0.00 | 0.00 | 0.00 | 90 | 1016.6 |
| 20260502204538 | 17 | 43 | 4.8 | 8.0 | 0.00 | 0.00 | 0.00 | 89 | 1016.6 |
| 20260502203047 | 17 | 32 | 8.0 | 19.3 | 0.00 | 0.00 | 0.00 | 89 | 1016.4 |
| 20260502201540 | 17 | 82 | 8.0 | 19.3 | 0.00 | 0.00 | 0.00 | 89 | 1016.0 |
| 20260502200041 | 17 | 55 | 9.7 | 22.5 | 0.00 | 0.00 | 0.00 | 89 | 1016.0 |
| 20260502194548 | 17 | 132 | 11.3 | 19.3 | 0.00 | 0.00 | 0.00 | 89 | 1015.7 |
| 20260502193039 | 17 | 87 | 8.0 | 14.5 | 0.00 | 0.00 | 0.00 | 89 | 1015.9 |
| 20260502191542 | 18 | 62 | 6.4 | 17.7 | 0.00 | 0.00 | 0.00 | 88 | 1016.0 |
| 20260502190037 | 18 | 74 | 4.8 | 19.3 | 0.00 | 0.00 | 0.00 | 88 | 1015.8 |
| 20260502184543 | 18 | 110 | 6.4 | 17.7 | 0.00 | 0.00 | 0.00 | 88 | 1015.7 |
| 20260502183050 | 18 | 50 | 9.7 | 20.9 | 0.00 | 0.00 | 0.00 | 88 | 1015.7 |
| 20260502181538 | 18 | 48 | 11.3 | 20.9 | 0.00 | 0.00 | 0.00 | 87 | 1015.8 |
| 20260502163100 | 19 | 130 | 6.4 | 20.9 | 0.00 | 0.00 | 0.00 | 86 | 1016.3 |
| 20260502161542 | 19 | 161 | 9.7 | 16.1 | 0.00 | 0.00 | 0.00 | 85 | 1016.5 |
| 20260502151539 | 19 | 92 | 9.7 | 16.1 | 0.00 | 0.00 | 0.00 | 84 | 1017.1 |
| 20260502123045 | 20 | 113 | 14.5 | 27.4 | 0.00 | 0.00 | 0.00 | 80 | 1018.7 |
| 20260502121542 | 20 | 22 | 9.7 | 22.5 | 0.00 | 0.00 | 0.00 | 79 | 1018.7 |
| 20260502114546 | 20 | 67 | 9.7 | 25.7 | 0.00 | 0.00 | 0.00 | 82 | 1019.4 |
| 20260502113039 | 20 | 50 | 11.3 | 19.3 | 0.00 | 0.00 | 0.00 | 81 | 1019.3 |
| 20260502111547 | 20 | 101 | 12.9 | 20.9 | 0.00 | 0.00 | 0.00 | 83 | 1019.5 |
| 20260502110042 | 20 | 98 | 11.3 | 20.9 | 0.00 | 0.00 | 0.00 | 83 | 1019.6 |
| 20260502104541 | 19 | 60 | 12.9 | 22.5 | 0.00 | 0.00 | 0.00 | 84 | 1019.7 |
| 20260502103039 | 20 | 78 | 11.3 | 22.5 | 0.00 | 0.00 | 0.00 | 82 | 1019.9 |
| 20260502101537 | 20 | 93 | 11.3 | 20.9 | 0.00 | 0.00 | 0.00 | 82 | 1020.1 |
| 20260502070049 | 18 | 23 | 8.0 | 17.7 | 0.00 | 0.00 | 0.00 | 85 | 1020.3 |
| 20260502064545 | 18 | 76 | 9.7 | 19.3 | 0.00 | 0.00 | 0.00 | 84 | 1020.2 |
| 20260502063040 | 18 | 31 | 1.6 | 14.5 | 0.00 | 0.00 | 0.00 | 86 | 1020.2 |
| 20260502061543 | 17 | 57 | 3.2 | 8.0 | 0.00 | 0.00 | 0.00 | 87 | 1020.1 |
| 20260502060040 | 17 | 0 | 0.0 | 1.6 | 0.00 | 0.00 | 0.00 | 89 | 1020.1 |
| 20260502054540 | 17 | 0 | 0.0 | 1.6 | 0.00 | 0.00 | 0.00 | 90 | 1019.9 |
| 20260502053038 | 17 | 0 | 0.0 | 0.0 | 0.00 | 0.00 | 0.00 | 90 | 1020.0 |
| 20260502051537 | 17 | 0 | 0.0 | 0.0 | 0.00 | 0.00 | 0.00 | 90 | 1019.9 |
| 20260502050036 | 17 | 0 | 0.0 | 0.0 | 0.00 | 0.00 | 0.00 | 90 | 1019.9 |
| 20260502044539 | 17 | 0 | 0.0 | 0.0 | 0.00 | 0.00 | 0.00 | 90 | 1019.8 |
| 20260502043047 | 17 | 13 | 1.6 | 4.8 | 0.00 | 0.00 | 0.00 | 89 | 1019.8 |
| 20260502041546 | 17 | 25 | 1.6 | 6.4 | 0.00 | 0.00 | 0.00 | 89 | 1019.8 |
| 20260502040038 | 17 | 19 | 3.2 | 8.0 | 0.00 | 0.00 | 0.00 | 89 | 1019.9 |
| 20260502034539 | 17 | 317 | 4.8 | 9.7 | 0.00 | 0.00 | 0.00 | 90 | 1019.9 |
| 20260502033042 | 17 | 36 | 6.4 | 12.9 | 0.00 | 0.00 | 0.00 | 90 | 1020.1 |
| 20260502031540 | 17 | 360 | 4.8 | 9.7 | 0.00 | 0.00 | 0.00 | 90 | 1020.1 |
| 20260502030040 | 17 | 52 | 3.2 | 6.4 | 0.00 | 0.00 | 0.00 | 88 | 1020.1 |
| 20260502024541 | 17 | 52 | 3.2 | 9.7 | 0.00 | 0.00 | 0.00 | 87 | 1020.2 |
| 20260502023043 | 17 | 101 | 3.2 | 16.1 | 0.00 | 0.00 | 0.00 | 86 | 1020.1 |
| 20260502021545 | 17 | 96 | 6.4 | 17.7 | 0.00 | 0.00 | 0.00 | 86 | 1020.0 |
| 20260502020043 | 17 | 90 | 4.8 | 16.1 | 0.00 | 0.00 | 0.00 | 88 | 1020.3 |
| 20260502014551 | 17 | 64 | 6.4 | 12.9 | 0.00 | 0.00 | 0.00 | 88 | 1020.1 |
| 20260502013038 | 17 | 77 | 1.6 | 6.4 | 0.00 | 0.00 | 0.00 | 90 | 1020.5 |
| 20260502011544 | 16 | 0 | 0.0 | 0.0 | 0.00 | 0.00 | 0.00 | 90 | 1020.6 |
| 20260502010040 | 16 | 0 | 0.0 | 0.0 | 0.00 | 0.00 | 0.00 | 90 | 1020.7 |
| 20260502004539 | 17 | 0 | 0.0 | 0.0 | 0.00 | 0.00 | 0.00 | 90 | 1020.8 |
| 20260502003037 | 17 | 0 | 0.0 | 0.0 | 0.00 | 0.00 | 0.00 | 90 | 1021.0 |
| 20260502001536 | 17 | 288 | 0.0 | 3.2 | 0.00 | 0.00 | 0.00 | 89 | 1021.4 |
| 20260502000052 | 17 | 0 | 0.0 | 1.6 | 0.00 | 0.00 | 0.00 | 88 | 1021.6 |
| 20260501234541 | 18 | 292 | 0.0 | 14.5 | 0.00 | 0.05 | 0.00 | 86 | 1021.6 |
| 20260501233038 | 18 | 48 | 4.8 | 19.3 | 0.00 | 0.05 | 0.00 | 85 | 1021.6 |
| 20260501231542 | 18 | 89 | 8.0 | 17.7 | 0.00 | 0.05 | 0.00 | 86 | 1021.7 |
| 20260501230037 | 18 | 62 | 11.3 | 22.5 | 0.00 | 0.05 | 0.00 | 87 | 1021.7 |